WetterOnline ( http://www.wetteronline.de )

Wetter aktuell Luckenwalde

Aktuelles Wetter: Baruth (55m)

6-stündlich | Neueste Meldungen
Ortszeit Temperatur Wetter
Di, 17.07. 14:00 27.3° C wolkig
Di, 17.07. 8:00 17.0° C bedeckt
Di, 17.07. 2:00 15.5° C wolkig
Mo, 16.07. 20:00 27.2° C leicht bewölkt
Mo, 16.07. 14:00 27.2° C leicht bewölkt
Mo, 16.07. 8:00 17.7° C leicht bewölkt
Mo, 16.07. 2:00 11.4° C wolkenlos
So, 15.07. 20:00 24.1° C wolkenlos
Ortszeit Temperatur Wetter
Di, 17.07. 19:10 26.6° C wolkig
Di, 17.07. 19:00 27.7° C wolkig
Di, 17.07. 18:50 27.7° C wolkig
Di, 17.07. 18:40 28.0° C wolkig
Di, 17.07. 18:30 28.1° C wolkig
Di, 17.07. 18:20 28.1° C wolkig
Di, 17.07. 18:00 29.9° C leicht bewölkt
Di, 17.07. 17:30 29.4° C wolkig
Di, 17.07. 17:00 29.5° C leicht bewölkt
Di, 17.07. 16:30 29.3° C wolkig
Di, 17.07. 16:00 29.8° C wolkig
Ortszeit Relative Feuchte Sichtweite
Di, 17.07. 14:00 35% 26 km
Di, 17.07. 8:00 80% 19 km
Di, 17.07. 2:00 84% 28 km
Mo, 16.07. 20:00 33% 70 km
Mo, 16.07. 14:00 37% 35 km
Mo, 16.07. 8:00 73% 22 km
Mo, 16.07. 2:00 94% 18 km
So, 15.07. 20:00 40% 70 km
Ortszeit Relative Feuchte Sichtweite
Di, 17.07. 19:10 47% -
Di, 17.07. 19:00 39% 40 km
Di, 17.07. 18:50 39% -
Di, 17.07. 18:40 38% -
Di, 17.07. 18:30 38% 30 km
Di, 17.07. 18:20 38% -
Di, 17.07. 18:00 28% 50 km
Di, 17.07. 17:30 29% 21 km
Di, 17.07. 17:00 31% 28 km
Di, 17.07. 16:30 29% 18 km
Di, 17.07. 16:00 31% 26 km
Ortszeit Niederschlagsmenge Niederschlagsart
Di, 17.07. 14:00 0.0 l/m2 in 6 Std. -
Di, 17.07. 8:00 0.0 l/m2 in 12 Std. -
Di, 17.07. 2:00 0.0 l/m2 in 6 Std. -
Mo, 16.07. 20:00 0.0 l/m2 in 12 Std. -
Mo, 16.07. 14:00 0.0 l/m2 in 6 Std. -
Mo, 16.07. 8:00 0.0 l/m2 in 12 Std. -
Mo, 16.07. 2:00 0.0 l/m2 in 6 Std. -
So, 15.07. 20:00 0.0 l/m2 in 12 Std. -
Ortszeit Niederschlagsmenge Niederschlagsart
Di, 17.07. 19:10 keine Meldung -
Di, 17.07. 19:00 0.0 l/m2 in 1 Std. -
Di, 17.07. 18:50 keine Meldung -
Di, 17.07. 18:40 keine Meldung -
Di, 17.07. 18:30 0.0 l/m2 in 1 Std. -
Di, 17.07. 18:20 keine Meldung -
Di, 17.07. 18:00 0.0 l/m2 in 1 Std. -
Di, 17.07. 17:30 0.0 l/m2 in 1 Std. -
Di, 17.07. 17:00 0.0 l/m2 in 1 Std. -
Di, 17.07. 16:30 0.0 l/m2 in 1 Std. -
Di, 17.07. 16:00 0.0 l/m2 in 1 Std. -
Ortszeit Stärke Spitze Richtung
km/h Bft. km/h Grad Sektor
Di, 17.07. 14:00 17 3 31 310° NW
Di, 17.07. 8:00 7 2 14 280° W
Di, 17.07. 2:00 4 1 25 290° W
Mo, 16.07. 20:00 4 1 22 320° NW
Mo, 16.07. 14:00 9 2 20 260° W
Mo, 16.07. 8:00 0 0 7 - -
Mo, 16.07. 2:00 4 1 14 260° W
So, 15.07. 20:00 6 1 26 320° NW
Ortszeit Stärke Spitze Richtung
km/h Bft. km/h Grad Sektor
Di, 17.07. 19:10 7 2 - 40° NO
Di, 17.07. 19:00 9 2 26 20° N
Di, 17.07. 18:50 9 2 - 20° N
Di, 17.07. 18:40 7 2 - 20° N
Di, 17.07. 18:30 9 2 26 20° N
Di, 17.07. 18:20 9 2 - 20° N
Di, 17.07. 18:00 7 2 36 320° NW
Di, 17.07. 17:30 13 3 35 320° NW
Di, 17.07. 17:00 13 3 30 310° NW
Di, 17.07. 16:30 13 3 30 340° N
Di, 17.07. 16:00 11 2 32 310° NW
Ortszeit Untergrenze Bedeckung Gattung
total tief tief mittel hoch
Di, 17.07. 14:00 2700 m 7/8 4/8 - - -
Di, 17.07. 8:00 3300 m 8/8 8/8 - - -
Di, 17.07. 2:00 2100 m 8/8 2/8 - - -
Mo, 16.07. 20:00 2100 m 3/8 3/8 - - -
Mo, 16.07. 14:00 1800 m 4/8 4/8 - - -
Mo, 16.07. 8:00 1500 m 3/8 3/8 - - -
Mo, 16.07. 2:00 - 0/8 0/8 - - -
So, 15.07. 20:00 - 0/8 0/8 - - -
Ortszeit Bedeckungsgrad in Achtel und Wolkenuntergrenze
Di, 17.07. 19:10 8(8100m) 8(9000m)
Di, 17.07. 19:00 8(8100m) 8(9000m)
Di, 17.07. 18:50 8(8100m)
Di, 17.07. 18:40 8(8400m)
Di, 17.07. 18:30 8(8400m)
Di, 17.07. 18:20 8(8400m)
Di, 17.07. 18:00 8(8400m)
Di, 17.07. 17:30 7(9000m) 8(9000m)
Di, 17.07. 17:00 7(9000m) 8(9000m) 8(9000m)
Di, 17.07. 16:30 8(9000m)
Di, 17.07. 16:00 1(2100m) 8(9000m) 8(9000m)
Ortszeit Luftdruck NN (hPa) Tendenz (hPa in 3 Std.)
Di, 17.07. 14:00 1011 - 0,5
Di, 17.07. 8:00 1012 + 0,4
Di, 17.07. 2:00 1012 + 0,1
Mo, 16.07. 20:00 1011 - 0,7
Mo, 16.07. 14:00 1013 - 1,2
Mo, 16.07. 8:00 1016 - 0,2
Mo, 16.07. 2:00 1016 + 0,2
So, 15.07. 20:00 1015 - 0,6
Ortszeit Luftdruck NN (hPa) Tendenz (hPa in 3 Std.)
Di, 17.07. 19:10 1010 keine Meldung
Di, 17.07. 19:00 1010 - 0,2
Di, 17.07. 18:50 1010 keine Meldung
Di, 17.07. 18:40 1010 keine Meldung
Di, 17.07. 18:30 1010 - 0,3
Di, 17.07. 18:20 1010 keine Meldung
Di, 17.07. 18:00 1010 - 0,8
Di, 17.07. 17:30 1010 - 0,9
Di, 17.07. 17:00 1010 - 1,2
Di, 17.07. 16:30 1010 - 1,1
Di, 17.07. 16:00 1010 - 1,0
Ortszeit Schneehöhe (cm)
Di, 17.07. 14:00 -
Di, 17.07. 8:00 -
Di, 17.07. 2:00 -
Mo, 16.07. 20:00 -
Mo, 16.07. 14:00 -
Mo, 16.07. 8:00 -
Mo, 16.07. 2:00 -
So, 15.07. 20:00 -
Ortszeit Schneehöhe (cm)
Di, 17.07. 19:10 -
Di, 17.07. 19:00 -
Di, 17.07. 18:50 -
Di, 17.07. 18:40 -
Di, 17.07. 18:30 -
Di, 17.07. 18:20 -
Di, 17.07. 18:00 -
Di, 17.07. 17:30 -
Di, 17.07. 17:00 -
Di, 17.07. 16:30 -
Di, 17.07. 16:00 -
Link zu dieser Seite / Seite empfehlen

Das Wetter in ...